Location: Colovrex
(46.2535°N, 6.1371°E)
Time: 11:02:44
(UTC+00:00)

Daily predictions for brighter satellites

Satellite Brightness Start Highest point End
(mag) Time Altitude Azimuth Time Altitude Azimuth Time Altitude Azimuth
USA 238 DEB 3.6 19:56:03 10° SSW 20:02:34 79° SE 20:09:27 10° NE
USA 238 3.6 19:56:10 10° SSW 20:02:40 79° SE 20:09:33 10° NE
SL-16 R/B 2.5 19:58:55 10° S 20:04:19 48° ESE 20:09:45 10° NE
ATLAS CENTAUR R/B 3.9 20:01:55 10° N 20:04:22 15° NNE 20:06:51 10° ENE
Cosmos 2360 Rocket 3.4 20:01:59 10° SSE 20:06:17 23° ESE 20:10:35 10° NE
Cosmos 2322 Rocket 2.7 20:02:01 10° S 20:07:16 39° ESE 20:12:32 10° NE
Cosmos 1934 Rocket 4.3 20:02:12 10° NNW 20:08:15 70° W 20:14:22 10° S
Genesis I 3.2 20:06:36 10° SSW 20:10:22 57° ESE 20:14:14 10° NE
ARIANE 5 R/B 3.8 20:06:43 10° SE 20:10:35 30° ENE 20:14:31 10° N
Cosmos 2227 4.3 20:05:08 10° NNW 20:10:47 81° WSW 20:16:24 10° SSE
CZ-2C R/B 4.2 20:07:38 10° NNE 20:12:13 45° E 20:16:48 10° S
Meteor 1-21 4.3 20:08:47 10° S 20:14:25 70° E 20:20:01 10° NNE
CENTAUR R/B 2.6 20:08:32 10° SW 20:14:26 88° SE 20:21:32 10° NE
Cosmos 676 Rocket 4.2 20:09:21 10° NNW 20:14:43 84° WSW 20:20:03 10° SSE
Cosmos 1470 2.8 20:11:25 10° N 20:15:25 88° E 20:19:22 10° S
Cosmos 1954 Rocket 4.2 20:10:22 10° NNW 20:15:43 80° WSW 20:21:02 10° SSE
Ariane Rocket 3.9 20:13:13 10° S 20:18:09 50° W 20:23:08 10° NNW
Cosmos 1980 Rocket 3.9 20:20:32 10° WSW 20:25:47 39° NW 20:31:02 10° NNE
Cosmos 1674 3.7 20:22:35 10° SSE 20:25:48 28° E 20:29:03 10° NNE
Cosmos 1315 Rocket 3.0 20:21:43 10° NNW 20:25:53 83° W 20:29:59 10° S
USA 81 4.1 20:21:53 10° N 20:27:10 69° E 20:32:24 10° SSE
Okean 1 Rocket 3.4 20:25:34 10° NNW 20:29:54 68° W 20:34:15 10° S
Cosmos 1455 Rocket 3.7 20:28:49 10° N 20:33:04 42° ENE 20:36:54 12° SE
Cosmos 1727 Rocket 4.0 20:28:21 10° S 20:34:37 71° E 20:40:53 10° NNE
Cosmos 1605 Rocket 4.5 20:32:43 10° NNW 20:39:04 65° W 20:45:20 10° S
Meteor 2-20 Rocket 4.5 20:33:25 10° S 20:39:29 70° E 20:45:34 10° NNE
Cosmos 1726 3.1 20:38:28 10° NNW 20:41:57 43° W 20:45:24 10° SSW
BREEZE-M DEB (TANK) 2.5 20:40:19 10° SW 20:42:40 48° SE 20:47:02 10° ENE
Cosmos 1844 Rocket 3.2 20:37:16 10° NNW 20:42:47 50° ENE 20:47:39 13° SE
Cosmos 1758 3.5 20:40:15 10° NNW 20:44:13 69° W 20:48:08 10° S
Cosmos 2285 Rocket 4.3 20:38:03 10° SSW 20:44:28 75° WNW 20:50:56 10° NNE
Cosmos 292 Rocket 4.1 20:45:17 10° SSW 20:50:06 71° WNW 20:54:57 10° NNE
Cosmos 1802 Rocket 4.4 20:44:43 10° N 20:50:48 50° ENE 20:55:58 15° SSE
Cosmos 1908 3.5 20:47:47 10° N 20:51:37 53° ENE 20:54:25 17° SSE
Cosmos 1340 4.1 20:51:55 16° SE 20:53:40 22° E 20:56:36 10° NE
Lacrosse 5 rocket 2.0 20:50:57 10° S 20:54:01 25° SE 20:57:03 10° ENE
Cosmos 2263 Rocket 3.6 20:50:30 10° NW 20:55:29 32° WSW 21:00:27 10° SSW
SPOT 5 3.1 20:53:08 15° SSE 20:57:28 66° ENE 21:02:24 10° N
Cosmos 1707 3.9 20:56:02 10° SSW 20:59:44 43° WNW 21:03:28 10° N
Cosmos 405 4.5 20:57:32 10° NNE 21:00:22 23° ENE 21:02:06 16° ESE
Cosmos 1452 Rocket 3.7 20:56:30 10° SSW 21:01:47 79° WNW 21:07:06 10° NNE
In-Cosmos 22 4.3 21:02:14 10° SSW 21:07:29 70° WNW 21:12:47 10° N
Resurs 01 Rocket 3.6 21:05:47 10° SSW 21:09:19 23° W 21:12:53 10° NW
Cosmos 1459 Rocket 3.9 21:03:27 10° N 21:09:33 83° E 21:14:34 16° S
Terra 2.0 21:06:08 18° SSE 21:09:33 60° ENE 21:14:16 10° N
SPOT 1/Viking Rocket 4.3 21:05:18 10° S 21:10:15 47° W 21:15:14 10° NNW
Cosmos 1850 Rocket 4.2 21:06:31 10° NNW 21:11:48 69° WSW 21:15:54 17° S
Cosmos 1953 2.4 21:08:06 10° NNW 21:12:11 79° W 21:15:11 18° S
Lacrosse 5 2.9 21:08:10 10° WNW 21:12:45 35° SW 21:16:06 16° S
Cosmos 2333 Rocket 2.9 21:09:00 16° SSE 21:12:56 36° ESE 21:18:07 10° NE
Cosmos 1025 Rocket 3.1 21:10:01 16° S 21:13:24 63° E 21:17:44 10° NNE
CARTOSAT-1 3.9 21:10:58 14° S 21:14:31 60° W 21:18:49 10° NNW
Cosmos 1000 Rocket 4.4 21:10:49 10° S 21:16:59 86° E 21:23:09 10° N
NOSS 3-2 (C) 4.5 21:12:44 10° WSW 21:18:18 49° NW 21:24:44 10° NE
Geosat 4.3 21:15:06 17° SSE 21:18:52 60° WSW 21:23:51 10° NW
SL-14 R/B 3.7 21:17:35 23° SSE 21:19:47 46° E 21:23:40 10° NNE
FALCON 9 DEB 2.9 21:18:22 10° SW 21:21:47 76° SSE 21:25:12 10° ENE
Spot 2 Rocket 4.1 21:17:52 13° S 21:22:16 52° W 21:27:14 10° NNW
Cosmos 1975 Rocket 3.7 21:19:04 10° SSW 21:23:19 54° WNW 21:27:39 10° N
ATLAS 3B R/B 2.9 21:18:32 10° S 21:24:42 46° ESE 21:31:03 10° NE
Cosmos 2061 Rocket 4.1 21:18:41 10° N 21:25:09 71° E 21:29:43 20° SSE
Cosmos 1844 3.6 21:21:00 10° NNW 21:26:36 86° ENE 21:30:18 22° SSE
Cosmos 1331 Rocket 3.9 21:22:32 10° SSW 21:27:45 81° ESE 21:33:04 10° NNE
Cosmos 2219 Rocket 2.7 21:24:39 20° SSE 21:28:07 40° ESE 21:33:23 10° NE
ERS-1 Rocket 3.2 21:24:38 17° S 21:28:26 67° WSW 21:33:30 10° NNW
Meteor 2-11 Rocket 4.5 21:22:34 10° N 21:28:43 80° W 21:33:25 18° S
Cosmos 1461 2.9 21:24:37 10° NW 21:28:51 70° WSW 21:30:58 27° SSE
Cosmos 1626 2.1 21:27:13 19° S 21:29:44 85° W 21:33:27 10° N
Cosmos 1864 Rocket 4.5 21:25:20 10° N 21:31:35 75° E 21:35:46 21° SSE
Meteor 1-24 Rocket 4.2 21:30:57 23° SSE 21:33:46 40° E 21:38:50 10° NNE
Aureole 1 Rocket 4.2 21:29:15 10° NNW 21:35:00 73° WSW 21:40:17 20° S
Meteor 2-10 Rocket 4.4 21:30:24 10° N 21:35:04 34° ENE 21:37:47 20° ESE
SL-8 R/B 3.6 21:34:10 10° WNW 21:38:57 74° SSW 21:41:58 22° ESE
BREEZE-M DEB (TANK) 2.5 21:36:20 10° WNW 21:39:02 34° SW 21:39:08 34° SW
Cosmos 2123 Rocket 4.0 21:34:03 17° S 21:39:05 80° E 21:45:27 10° N
BREEZE-M DEB (TANK) 1.7 21:37:47 10° SW 21:40:19 69° SSE 21:45:37 10° ENE
Cosmos 2237 Rocket 3.8 21:42:21 15° ESE 21:43:27 16° E 21:46:46 10° ENE
ATLAS CENTAUR R/B 1.7 21:39:39 10° NNW 21:43:58 67° NE 21:46:25 26° SE
USA 215 3.3 21:38:41 10° ENE 21:45:03 53° SE 21:51:24 10° SSW
Cosmos 1302 Rocket 4.1 21:42:29 22° S 21:45:52 60° ESE 21:51:03 10° NNE
ARIANE 5 R/B 4.1 21:43:35 13° SSW 21:47:00 30° W 21:50:58 10° NNW
SL-16 R/B 4.0 21:43:36 10° WSW 21:48:37 32° NW 21:53:41 10° NNE
Cosmos 2233 Rocket 4.1 21:43:16 10° N 21:49:24 65° E 21:53:01 25° SSE
Cosmos 2360 Rocket 2.7 21:44:15 10° SW 21:49:48 60° WNW 21:55:25 10° NNE
SL-24 R/B 4.3 21:46:06 10° N 21:50:59 81° E 21:53:44 26° S
Cosmos 2322 Rocket 3.7 21:46:04 10° WSW 21:51:19 37° NW 21:56:38 10° NNE
FALCON 9 DEB 4.5 21:53:44 22° E 21:53:44 22° E 21:55:08 10° ENE
Centaur D AC-29 4.0 21:38:08 10° W 21:56:08 22° SW 21:59:44 17° S
Cosmos 1455 3.8 21:58:23 10° NNE 22:01:28 23° ENE 22:02:38 20° E
Cosmos 389 Rocket 3.3 21:59:33 10° N 22:02:46 37° ENE 22:03:30 33° ESE
COSMOS 2428 2.8 22:01:02 24° S 22:04:31 63° ESE 22:10:12 10° NNE
H-2A R/B 4.0 22:02:42 10° N 22:06:42 54° WNW 22:09:25 19° SW
Cosmos 2322 3.7 22:02:41 15° SSW 22:07:30 88° WNW 22:13:12 10° NNE
Cosmos 1300 3.0 22:05:27 10° NNW 22:09:12 57° W 22:10:36 34° SSW
Cosmos 1606 Rocket 4.0 22:06:28 10° N 22:10:52 52° ENE 22:12:29 34° SE
ALOS 2 3.9 22:11:48 22° ESE 22:13:42 30° ENE 22:17:32 10° N
Cosmos 2278 Rocket 2.8 22:09:37 10° NNW 22:15:07 48° ENE 22:18:27 23° ESE
Cosmos 1486 Rocket 4.1 22:13:11 10° NNW 22:18:26 71° ENE 22:20:48 33° SE
USA 267 3.6 22:12:30 10° ESE 22:18:58 65° NNE 22:25:27 10° NW
Cosmos 1346 Rocket 2.8 22:19:17 45° SSE 22:20:21 67° E 22:24:22 10° NNE
Cosmos 1844 Rocket 4.1 22:21:39 10° NW 22:26:24 28° WSW 22:29:19 18° SW
SL-4 R/B 4.2 22:30:03 12° E 22:30:03 12° E 22:30:27 10° E
Meteor 2-5 Rocket 4.1 22:24:44 19° SSW 22:28:36 58° WNW 22:34:08 10° N
Cosmos 1340 4.4 22:26:36 14° SW 22:29:06 28° WNW 22:32:23 10° N
Cosmos 968 Rocket 3.5 22:26:23 10° NNW 22:31:29 70° WSW 22:33:31 36° S
Lacrosse 5 rocket 2.1 22:29:26 10° WSW 22:32:57 45° NNW 22:36:25 10° NE
Cosmos 1464 Rocket 4.4 22:26:56 10° N 22:33:10 53° ENE 22:36:22 28° SE
Cosmos 1992 Rocket 4.0 22:32:39 36° S 22:34:46 68° ESE 22:39:58 10° NNE
Cosmos 1184 Rocket 3.8 22:38:30 33° E 22:38:30 33° E 22:41:15 10° NNE
GEOS 3 Rocket 3.7 22:36:02 35° SSE 22:38:18 67° SW 22:43:38 10° NW
Cosmos 1607 4.3 22:37:20 10° NNW 22:43:45 62° NE 22:47:53 22° SE
Meteor 2-1 Rocket 4.5 22:41:05 10° N 22:46:31 57° ENE 22:48:54 32° SE
Terra 4.0 22:45:01 11° SW 22:47:42 17° W 22:50:49 10° NW
DNEPR-1 R/B 4.5 22:46:07 10° NW 22:49:55 32° WSW 22:50:34 31° SW
Cosmos 1703 3.9 22:49:57 38° ESE 22:50:24 40° E 22:54:08 10° NNE
Cosmos 1980 3.8 22:50:46 37° S 22:52:53 61° ESE 22:58:30 10° NNE
Cosmos 1441 Rocket 3.9 22:52:52 38° ESE 22:53:11 39° E 22:56:48 10° NNE
FALCON 9 DEB 3.0 22:56:15 70° WNW 22:56:25 73° NNW 22:59:33 10° ENE
Cosmos 2333 Rocket 3.4 22:51:43 10° SW 22:57:08 41° NW 23:02:33 10° NNE
Cosmos 1943 Rocket 4.0 22:54:42 10° N 22:59:11 25° NE 23:03:39 10° ESE
Cosmos 2228 3.9 22:55:55 10° NNW 23:00:02 39° W 23:01:23 31° SW
BREEZE-M DEB (TANK) 2.7 22:56:35 10° WSW 23:05:12 69° SSE 23:08:08 10° ENE
Cosmos 2034 Rocket 4.1 23:00:26 10° N 23:06:37 66° E 23:09:25 33° SSE
Okean 1-7 Rocket 3.6 23:06:13 49° SSE 23:07:16 67° E 23:11:42 10° NNE
Cosmos 2219 Rocket 3.5 23:06:53 10° WSW 23:12:06 37° NW 23:17:22 10° NNE
SAR-Lupe-2 3.5 23:11:48 10° NNE 23:15:22 64° ESE 23:15:31 63° ESE
ATLAS 3B R/B 3.6 23:09:06 10° WSW 23:15:24 46° NW 23:21:57 10° NNE
Cosmos 1503 Rocket 4.2 23:12:14 10° NNW 23:17:35 64° WSW 23:19:20 41° S
FALCON 9 DEB 4.2 23:16:35 16° W 23:18:44 40° NNW 23:21:42 10° NE
FALCON 9 DEB 3.9 23:19:51 27° W 23:21:09 46° NNW 23:24:11 10° NE
SL-16 R/B 3.0 23:20:20 30° SE 23:21:48 35° ESE 23:26:53 10° NE
USA 32 4.5 23:16:58 10° N 23:22:07 53° E 23:24:06 34° SE
ATLAS CENTAUR R/B 3.4 23:19:34 10° WNW 23:22:28 17° WSW 23:22:33 17° WSW
Cosmos 2058 Rocket 3.4 23:20:11 10° NNW 23:24:33 56° W 23:25:34 44° SW
Cosmos 2237 Rocket 2.2 23:24:08 33° SSW 23:26:46 81° WNW 23:32:26 10° NNE
Cosmos 1812 Rocket 4.3 23:22:46 10° N 23:26:56 44° ENE 23:28:14 34° ESE
FALCON 9 DEB 4.3 23:25:34 15° W 23:27:51 38° NNW 23:30:48 10° NE
USA 215 3.8 23:21:44 10° NE 23:28:08 60° NNW 23:34:33 10° WSW
ATLAS CENTAUR R/B 3.4 23:25:37 35° SSW 23:28:10 67° SE 23:41:02 10° NE
Tsikada Rocket 4.1 23:28:42 36° SSE 23:31:18 66° E 23:37:25 10° NNE
Cosmos 1867 4.2 23:26:41 10° NW 23:31:44 38° WSW 23:32:53 34° SW
Thor Agena Rocket 3.6 23:29:26 10° NNE 23:34:43 71° ESE 23:36:27 42° S
GP-B 3.3 23:31:32 10° N 23:35:57 59° E 23:37:02 45° SE
Cosmos 1455 3.5 23:33:46 10° NNW 23:37:03 27° W 23:37:30 26° WSW
Cosmos 2369 Rocket 4.0 23:33:02 10° N 23:37:51 27° NE 23:42:39 10° ESE
GRACE-FO 1 4.5 23:36:06 10° N 23:39:53 84° E 23:40:17 70° SSE
GRACE-FO 2 4.5 23:36:33 10° N 23:40:21 85° E 23:40:44 70° SSE
Meteor 1-21 Rocket 4.5 23:39:34 33° SW 23:42:03 61° WNW 23:47:43 10° N
Meteor 1-4 Rocket 2.3 23:41:18 10° NNW 23:44:48 81° W 23:44:51 81° WSW
ALOS 2 3.8 23:49:12 27° WSW 23:50:00 29° W 23:53:50 10° NW
SJ 16-02 1.6 23:51:08 10° NNW 23:55:29 61° ENE 23:57:01 37° SE
